Terug naar catalogus

FENGYUN 1C DEB

ActiefSSO
NORAD 30387·DEBRIS·🇨🇳 China

Gelanceerd May 10, 1999 vanaf Taiyuan Satellite Launch Center

Loading…

Volgende Passages (komende 24 uur)

TLE

VersSource: Space-Track

Epoch: Sep 14, 2026, 07:04 UTC

1 30387U 99025ADA 26257.29448001  .00000291  00000-0  17148-3 0  9992
2 30387  98.6479 269.1040 0001518  82.8467 289.7883 14.15321379 12226

Volg FENGYUN 1C DEB in realtime met AllMySat

Download on the App Store